Weather in Dzhirim

Russia / Republic of Khakassia     54°48′31″N   90°23′52″E
temp.,
°C
wind,
m/s
gust,
m/s
humid.,
%
clouds,
%
prec.,
mm/h
press.,
hPa
HPBL,
m
15 may, sat
sat1501:00+8w2353100 0.0 102255
04:00+7wsw2256100 0.0 102111
07:00+10wsw41051100 0.0 1021774
10:00+15wsw7104099 0.0 10191155
13:00+15w81239100 0.1 10191225
16:00+16w81346100 0.4 10181245
19:00+16wsw7145097 0.4 10171142
22:00+14wsw7165041 0.0 1016607
16 may, sun
sun1601:00+15w71550100 0.3 1015689
04:00+14w61351100 0.0 1015462
07:00+13sw1274100 1.0 101560
10:00+16nw2558100 0.0 1015986
13:00+19wsw364697 0.0 10121443
16:00+19wsw7124896 0.1 1008717
19:00+15wsw61077100 3.5 1008612
22:00+13wsw61081100 2.8 1008420
17 may, mon
mon1701:00+13w3885100 3.8 1007480
04:00+9n5893100 3.0 1010372
07:00+8n588292 3.3 1013583
10:00+10nnw566012 0.0 1015964
13:00+13n554664 0.0 10151287
16:00+14nnw444490 0.0 10151422
19:00+13n3446100 0.0 10151266
22:00+11nne3555100 0.0 1016393
18 may, tue
tue1801:00+10ene0057100 0.0 101443
04:00+9ssw1160100 0.0 101310
07:00+8ssw1281100 1.9 1011147
10:00+8sse2395100 4.6 1008131
13:00+13wsw61178100 5.0 1006799
16:00+13w71281100 0.2 1004675
19:00+14nnw5888100 3.6 1002729
22:00+11nw279336 4.8 1005376
19 may, wed
wed1901:00+9wsw119516 4.8 100510
04:00+10ese1194100 0.0 100313
07:00+9n2298100 6.7 1001215
10:00+7nnw6994100 4.4 1002780
13:00+7n5791100 8.0 10031069
16:00+7n5882100 3.1 1005929
19:00+8nne3674100 3.4 10061036
22:00+6n61172100 0.3 1006457